When you browse on this site, cookies collect data to enhance your experience and personalize the content and advertising you see.
Visit our Privacy Policy to learn more. By continuing to use the site, you agree to this use of cookies and data.
  • Em Portugal
  • Lista de países
  • Para 7 dias
  • Temperatura da água
  • Mapas de satélite
  • Mapa do tempo
  • Widgets de tempo
  • user-avatar
    Iniciar Sessão

    Previsão horária em Primorsko

    Hoje, 16 Dezembro, Domingo

    Tempo Temperatura Precipitação Vento Pressão Humidade
    00:00 +11°C° 0.3 mm 3 m/s 762 mmHg 90%
    01:00 +11°C° 0.3 mm 3 m/s 761 mmHg 89%
    02:00 +11°C° 0 mm 3 m/s 761 mmHg 89%
    03:00 +11°C° 0.3 mm 3 m/s 761 mmHg 88%
    04:00 +12°C° 0.3 mm 2 m/s 761 mmHg 88%
    05:00 +12°C° 0.3 mm 2 m/s 761 mmHg 88%
    06:00 +12°C° 0.4 mm 2 m/s 761 mmHg 88%
    07:00 +12°C° 0.4 mm 2 m/s 760 mmHg 89%
    08:00 +12°C° 0 mm 2 m/s 760 mmHg 87%
    09:00 +12°C° 0.1 mm 3 m/s 760 mmHg 84%
    10:00 +13°C° 0.1 mm 3 m/s 760 mmHg 80%
    11:00 +13°C° 0.1 mm 3 m/s 760 mmHg 77%
    12:00 +14°C° 0 mm 4 m/s 760 mmHg 74%
    13:00 +14°C° 0 mm 4 m/s 760 mmHg 72%
    14:00 +15°C° 0 mm 4 m/s 759 mmHg 70%
    15:00 +14°C° 0 mm 4 m/s 759 mmHg 76%
    16:00 +13°C° 0 mm 4 m/s 759 mmHg 82%
    17:00 +11°C° 0 mm 3 m/s 759 mmHg 88%
    18:00 +11°C° 0 mm 3 m/s 760 mmHg 89%
    19:00 +11°C° 0 mm 3 m/s 760 mmHg 90%
    20:00 +11°C° 0 mm 3 m/s 760 mmHg 91%
    21:00 +11°C° 0 mm 3 m/s 760 mmHg 92%
    22:00 +10°C° 0 mm 3 m/s 760 mmHg 93%
    23:00 +10°C° 0 mm 2 m/s 760 mmHg 94%

    Amanhã, 17 Dezembro, Segunda-feira

    Tempo Temperatura Precipitação Vento Pressão Humidade
    00:00 +10°C° 0.1 mm 3 m/s 760 mmHg 94%
    01:00 +10°C° 0.1 mm 3 m/s 761 mmHg 94%
    02:00 +10°C° 0.1 mm 3 m/s 761 mmHg 95%
    03:00 +10°C° 0.2 mm 3 m/s 761 mmHg 95%
    04:00 +10°C° 0.2 mm 3 m/s 760 mmHg 95%
    05:00 +10°C° 0.2 mm 3 m/s 760 mmHg 95%
    06:00 +10°C° 0.3 mm 3 m/s 760 mmHg 95%
    07:00 +9°C° 0.3 mm 3 m/s 761 mmHg 94%
    08:00 +9°C° 0.3 mm 3 m/s 761 mmHg 94%
    09:00 +9°C° 0.1 mm 3 m/s 761 mmHg 93%
    10:00 +10°C° 0.1 mm 3 m/s 761 mmHg 92%
    11:00 +10°C° 0.1 mm 3 m/s 761 mmHg 90%
    12:00 +10°C° 0.2 mm 3 m/s 761 mmHg 91%
    13:00 +10°C° 0.2 mm 3 m/s 761 mmHg 91%
    14:00 +10°C° 0.2 mm 3 m/s 761 mmHg 91%
    15:00 +10°C° 0.2 mm 3 m/s 761 mmHg 92%
    16:00 +9°C° 0.2 mm 3 m/s 761 mmHg 93%
    17:00 +9°C° 0.2 mm 3 m/s 761 mmHg 94%
    18:00 +8°C° 0.2 mm 4 m/s 761 mmHg 94%
    19:00 +8°C° 0.2 mm 4 m/s 761 mmHg 94%
    20:00 +8°C° 0.2 mm 4 m/s 761 mmHg 95%
    21:00 +10°C° 0.4 mm 4 m/s 761 mmHg 95%
    22:00 +10°C° 0.4 mm 4 m/s 761 mmHg 96%
    23:00 +9°C° 0.4 mm 5 m/s 761 mmHg 96%

    Depois de amanhã, 18 Dezembro, Terça-feira

    Tempo Temperatura Precipitação Vento Pressão Humidade
    00:00 +9°C° 0.5 mm 5 m/s 761 mmHg 96%
    01:00 +9°C° 0.5 mm 5 m/s 761 mmHg 97%
    02:00 +9°C° 0.5 mm 6 m/s 761 mmHg 97%
    03:00 +9°C° 1 mm 6 m/s 761 mmHg 96%
    04:00 +9°C° 1 mm 6 m/s 761 mmHg 96%
    05:00 +9°C° 1 mm 7 m/s 761 mmHg 96%
    06:00 +9°C° 1.2 mm 7 m/s 762 mmHg 95%
    07:00 +7°C° 1.2 mm 8 m/s 762 mmHg 95%
    08:00 +7°C° 1.2 mm 8 m/s 762 mmHg 94%
    09:00 +7°C° 0.7 mm 8 m/s 763 mmHg 94%
    10:00 +7°C° 0.7 mm 9 m/s 763 mmHg 93%
    11:00 +7°C° 0.7 mm 9 m/s 763 mmHg 92%
    12:00 +6°C° 0.5 mm 9 m/s 763 mmHg 92%
    13:00 +6°C° 0.5 mm 9 m/s 763 mmHg 91%
    14:00 +6°C° 0.5 mm 10 m/s 763 mmHg 90%
    15:00 +5°C° 0.3 mm 10 m/s 763 mmHg 90%
    16:00 +3°C° 0.3 mm 10 m/s 764 mmHg 90%
    17:00 +3°C° 0.3 mm 11 m/s 764 mmHg 89%
    18:00 +2°C° 0.4 mm 10 m/s 764 mmHg 89%
    19:00 +2°C° 0.4 mm 10 m/s 765 mmHg 89%
    20:00 +2°C° 0.4 mm 10 m/s 765 mmHg 89%
    21:00 +1°C° 0.2 mm 10 m/s 766 mmHg 88%
    22:00 +1°C° 0.2 mm 10 m/s 766 mmHg 87%
    23:00 0°C° 0.2 mm 10 m/s 766 mmHg 87%

    19 Dezembro, Quarta-feira

    Tempo Temperatura Precipitação Vento Pressão Humidade
    00:00 0°C° 0.1 mm 10 m/s 766 mmHg 86%
    01:00 -2°C° 0.1 mm 10 m/s 766 mmHg 86%
    02:00 -2°C° 0.1 mm 10 m/s 766 mmHg 85%
    03:00 -3°C° 0 mm 9 m/s 767 mmHg 84%
    04:00 -3°C° 0 mm 9 m/s 767 mmHg 83%
    05:00 -2°C° 0 mm 8 m/s 767 mmHg 82%
    06:00 -2°C° 0 mm 8 m/s 767 mmHg 81%
    07:00 -2°C° 0 mm 8 m/s 768 mmHg 80%
    08:00 -2°C° 0 mm 8 m/s 768 mmHg 79%
    09:00 -2°C° 0 mm 7 m/s 768 mmHg 77%
    10:00 -1°C° 0 mm 7 m/s 768 mmHg 74%
    11:00 0°C° 0 mm 7 m/s 768 mmHg 72%
    12:00 0°C° 0 mm 7 m/s 768 mmHg 72%
    13:00 +2°C° 0 mm 7 m/s 768 mmHg 73%
    14:00 +2°C° 0 mm 6 m/s 768 mmHg 73%
    15:00 +2°C° 0 mm 6 m/s 768 mmHg 77%
    16:00 +1°C° 0 mm 5 m/s 768 mmHg 81%
    17:00 0°C° 0 mm 4 m/s 769 mmHg 85%
    18:00 0°C° 0 mm 4 m/s 769 mmHg 86%
    19:00 0°C° 0 mm 4 m/s 769 mmHg 87%
    20:00 -1°C° 0 mm 4 m/s 769 mmHg 88%
    21:00 -1°C° 0 mm 4 m/s 769 mmHg 88%
    22:00 -1°C° 0 mm 4 m/s 770 mmHg 88%
    23:00 -1°C° 0 mm 4 m/s 770 mmHg 88%

    20 Dezembro, Quinta-feira

    Tempo Temperatura Precipitação Vento Pressão Humidade
    00:00 0°C° 0 mm 3 m/s 770 mmHg 88%
    01:00 0°C° 0 mm 3 m/s 770 mmHg 88%
    02:00 0°C° 0 mm 3 m/s 770 mmHg 88%
    03:00 0°C° 0 mm 3 m/s 770 mmHg 87%
    04:00 0°C° 0 mm 3 m/s 770 mmHg 87%
    05:00 +1°C° 0 mm 2 m/s 770 mmHg 87%
    06:00 +1°C° 0 mm 2 m/s 770 mmHg 86%
    07:00 +1°C° 0 mm 2 m/s 771 mmHg 85%
    08:00 +1°C° 0 mm 2 m/s 771 mmHg 85%
    09:00 +2°C° 0 mm 2 m/s 771 mmHg 79%
    10:00 +3°C° 0 mm 2 m/s 771 mmHg 73%
    11:00 +6°C° 0 mm 1 m/s 771 mmHg 67%
    12:00 +6°C° 0 mm 1 m/s 771 mmHg 67%
    13:00 +6°C° 0 mm 1 m/s 770 mmHg 66%
    14:00 +7°C° 0 mm 1 m/s 770 mmHg 65%
    15:00 +6°C° 0 mm 1 m/s 770 mmHg 71%
    16:00 +5°C° 0 mm 1 m/s 770 mmHg 77%
    17:00 +3°C° 0 mm 2 m/s 770 mmHg 83%
    18:00 +2°C° 0 mm 2 m/s 770 mmHg 85%
    19:00 +2°C° 0 mm 2 m/s 770 mmHg 87%
    20:00 +2°C° 0 mm 2 m/s 770 mmHg 89%
    21:00 +3°C° 0 mm 1 m/s 770 mmHg 90%
    22:00 +3°C° 0 mm 1 m/s 770 mmHg 90%
    23:00 +3°C° 0 mm 1 m/s 770 mmHg 91%

    21 Dezembro, Sexta-feira

    Tempo Temperatura Precipitação Vento Pressão Humidade
    00:00 +3°C° 0 mm 1 m/s 770 mmHg 90%
    01:00 +3°C° 0 mm 1 m/s 770 mmHg 90%
    02:00 +3°C° 0 mm 1 m/s 769 mmHg 89%
    03:00 +3°C° 0 mm 1 m/s 769 mmHg 89%
    04:00 +3°C° 0 mm 1 m/s 769 mmHg 88%
    05:00 +3°C° 0 mm 1 m/s 768 mmHg 87%
    06:00 +3°C° 0 mm 1 m/s 768 mmHg 86%
    07:00 +2°C° 0 mm 2 m/s 768 mmHg 86%
    08:00 +2°C° 0 mm 2 m/s 768 mmHg 85%
    09:00 +4°C° 0 mm 2 m/s 768 mmHg 79%
    10:00 +5°C° 0 mm 2 m/s 768 mmHg 72%
    11:00 +6°C° 0 mm 2 m/s 768 mmHg 66%
    12:00 +7°C° 0 mm 2 m/s 767 mmHg 66%
    13:00 +8°C° 0 mm 1 m/s 767 mmHg 67%
    14:00 +9°C° 0 mm 1 m/s 767 mmHg 67%
    15:00 +7°C° 0 mm 2 m/s 767 mmHg 73%
    16:00 +6°C° 0 mm 2 m/s 767 mmHg 80%
    17:00 +5°C° 0 mm 2 m/s 767 mmHg 86%
    18:00 +4°C° 0.1 mm 2 m/s 768 mmHg 88%
    19:00 +3°C° 0.1 mm 3 m/s 768 mmHg 89%
    20:00 +3°C° 0.1 mm 3 m/s 768 mmHg 91%
    21:00 +2°C° 0 mm 3 m/s 768 mmHg 91%
    22:00 +2°C° 0 mm 3 m/s 768 mmHg 92%
    23:00 +2°C° 0 mm 3 m/s 768 mmHg 92%
    Mostrar mais